DateTimeUTC,F1_A11,F1_S11,BsB_S11,BsG_S11,BsR_S11,BbsB_S11,BbsG_S11,BbsR_S11,BaB_A11,BaG_A11,BaR_A11,Tu_S11,T_S11,Uu_S11,U_S11,P_S11,T1_A11
2021-09-01T02:00:00Z,00040200,20000000,,,,,,,-000.03,0000.51,0000.33,18.5,25.3,02.6,01.7,0672.6,31.0
2021-09-01T02:01:00Z,00040200,20000000,,,,,,,0000.07,-000.34,-000.59,18.5,25.4,02.6,01.7,0672.6,31.0
2021-09-01T02:02:00Z,00040200,20000000,,,,,,,0000.01,-000.03,0000.11,18.5,25.4,02.6,01.7,0672.6,31.0
2021-09-01T02:03:00Z,00040200,60000000,,,,,,,0000.55,0000.40,0000.82,18.6,25.4,02.6,01.7,0672.6,31.0
2021-09-01T02:04:00Z,00040200,40000000,0002.85,0002.66,0001.92,0000.18,0000.39,0000.30,0000.70,0000.81,0000.25,18.9,25.4,02.8,01.9,0673.6,31.0
2021-09-01T02:05:00Z,00040200,00000000,0003.80,0002.49,0001.74,0000.69,0000.66,0000.02,0000.62,0000.64,0000.29,19.0,25.3,02.7,01.8,0673.6,31.0
2021-09-01T02:06:00Z,00040200,00000000,0004.70,0002.71,0001.56,0000.78,0000.69,0000.29,0000.80,0000.78,0000.50,19.0,25.3,02.7,01.9,0673.7,31.0
2021-09-01T02:07:00Z,00040200,00000000,0003.60,0002.59,0001.74,0001.08,0000.30,0000.19,0000.37,0000.31,0000.52,18.9,25.3,02.8,01.9,0673.7,31.0
2021-09-01T02:08:00Z,00040200,00000000,0003.16,0002.63,0001.67,0000.50,0000.76,0000.37,0000.52,0000.76,0000.58,18.9,25.2,02.8,01.9,0673.7,31.0
2021-09-01T02:09:00Z,00040200,00000000,0003.81,0003.02,0001.47,0000.46,0000.55,0000.33,0000.66,0000.42,0000.34,18.8,25.2,02.8,01.9,0673.7,31.0
2021-09-01T02:10:00Z,00040200,00000000,0003.13,0002.89,0001.75,0000.12,0000.56,0000.46,0001.01,0001.04,0000.63,18.8,25.2,02.8,01.9,0673.7,31.0
2021-09-01T02:11:00Z,00040200,00000000,0003.56,0002.90,0001.64,0000.53,0000.57,0000.42,0000.89,0000.32,0000.72,18.8,25.2,02.8,01.9,0673.7,31.0
2021-09-01T02:12:00Z,00040200,00000000,0003.66,0003.12,0001.73,0000.88,0000.85,0000.32,0000.41,0000.69,0000.55,18.8,25.1,02.9,02.0,0673.7,31.0
2021-09-01T02:13:00Z,00040200,00000000,0003.55,0003.34,0002.26,0000.58,0000.43,0000.42,0000.98,0000.49,0000.56,18.7,25.1,03.0,02.0,0673.7,31.0
2021-09-01T02:14:00Z,00040200,00000000,0003.97,0003.63,0001.99,0000.95,0000.46,0000.18,0001.48,0001.47,0000.67,18.7,25.1,03.0,02.1,0673.7,31.0
2021-09-01T02:15:00Z,00040200,00000000,0004.22,0003.08,0002.11,0001.08,0000.47,0000.33,0000.41,0001.04,0000.66,18.8,25.2,03.1,02.1,0673.7,31.0
2021-09-01T02:16:00Z,00040200,00000000,0003.98,0003.13,0002.19,0000.06,0000.48,0000.10,0000.79,0000.33,0000.33,18.9,25.2,03.1,02.1,0673.7,31.0
2021-09-01T02:17:00Z,00040200,00000000,0004.22,0003.23,0001.81,0000.64,0000.45,0000.14,0001.12,0000.96,0000.80,18.9,25.2,03.1,02.1,0673.7,31.0
2021-09-01T02:18:00Z,00040200,00000000,0003.91,0002.97,0002.05,0000.76,0000.09,0000.27,0000.71,0000.99,0000.84,18.9,25.2,03.1,02.1,0673.7,31.0
2021-09-01T02:19:00Z,00040200,00000000,0004.50,0002.93,0001.87,0000.94,0000.70,0000.24,0000.62,0000.37,0000.17,18.9,25.2,03.2,02.2,0673.7,31.0
2021-09-01T02:20:00Z,00040200,00000000,0004.79,0002.82,0001.75,0000.19,0000.49,0000.10,0000.51,0000.62,0000.63,18.9,25.2,03.1,02.1,0673.7,31.0
2021-09-01T02:21:00Z,00040200,00000000,0003.71,0002.86,0002.09,0000.66,0000.46,0000.03,0000.68,0000.11,0000.07,18.8,25.1,03.1,02.1,0673.7,31.0
2021-09-01T02:22:00Z,00040200,00000000,0004.29,0003.25,0002.03,0000.37,0000.38,0000.30,0000.29,0000.56,0000.61,18.8,25.1,02.9,02.0,0673.7,31.0
2021-09-01T02:23:00Z,00040200,00000000,0004.50,0002.61,0001.93,0000.39,0000.19,0000.03,0001.03,0000.77,0000.32,18.8,25.1,03.0,02.1,0673.7,31.0
2021-09-01T02:24:00Z,00040200,00000000,0003.39,0003.05,0001.34,0000.65,0000.51,0000.09,0000.18,0000.16,0000.76,18.7,25.1,02.9,02.0,0673.6,31.0
2021-09-01T02:25:00Z,00040200,00000000,0004.04,0003.00,0001.43,0000.41,0000.35,-000.10,0000.55,0000.44,-000.02,18.7,25.1,02.9,02.0,0673.6,31.0
2021-09-01T02:26:00Z,00040200,00000000,0004.47,0003.04,0001.78,0000.91,0000.59,-000.01,0001.21,0001.55,0000.83,18.7,25.1,03.0,02.0,0673.6,31.0
2021-09-01T02:27:00Z,00040200,00000000,0004.06,0002.93,0001.80,0000.83,0000.45,0000.26,0000.53,0000.46,0000.77,18.7,25.0,03.1,02.1,0673.6,31.0
2021-09-01T02:28:00Z,00040200,00000000,0004.01,0003.33,0002.14,0000.39,0000.12,0000.29,0001.28,0001.01,0000.63,18.6,25.0,03.2,02.2,0673.6,31.0
2021-09-01T02:29:00Z,00040200,00000000,0003.94,0003.16,0002.09,0000.89,0000.43,0000.41,0001.16,0001.38,0001.18,18.6,25.0,03.3,02.3,0673.6,31.0
2021-09-01T02:30:00Z,00040200,00000000,0004.56,0003.15,0001.97,0000.40,0000.71,0000.39,0001.21,0000.61,0000.74,18.7,25.0,03.3,02.2,0673.6,31.0
2021-09-01T02:31:00Z,00040200,00000000,0004.41,0003.24,0001.99,0000.84,0000.80,0000.25,0000.30,0000.92,0000.49,18.8,25.1,03.3,02.2,0673.6,31.0
2021-09-01T02:32:00Z,00040200,00000000,0004.67,0003.47,0002.12,0000.67,0000.53,0000.29,0000.61,0000.66,0000.64,18.9,25.1,03.4,02.3,0673.6,31.0
2021-09-01T02:33:00Z,00040200,00000000,0004.69,0003.62,0002.17,0000.81,0000.30,0000.26,0001.13,0000.58,0000.32,18.9,25.2,03.3,02.3,0673.6,31.0
2021-09-01T02:34:00Z,00040200,00000000,0003.71,0003.18,0002.18,0000.21,0000.56,0000.18,0000.82,0000.74,0000.53,18.9,25.2,03.3,02.3,0673.6,31.0
2021-09-01T02:35:00Z,00040200,00000000,0003.03,0003.06,0001.97,0000.66,0000.48,0000.49,0000.52,0000.55,0000.74,18.9,25.1,03.2,02.2,0673.6,31.0
2021-09-01T02:36:00Z,00040200,00000000,0004.51,0003.37,0002.16,0001.02,0000.41,0000.47,0000.93,0000.71,0000.54,18.9,25.1,03.3,02.2,0673.6,31.0
2021-09-01T02:37:00Z,00040200,00000000,0004.06,0003.15,0001.91,0000.61,0000.51,0000.14,0000.95,0000.84,0000.76,18.8,25.1,03.2,02.2,0673.6,31.0
2021-09-01T02:38:00Z,00040200,00000000,0004.13,0003.03,0001.97,0001.09,0000.32,0000.15,0000.00,0000.34,-000.01,18.8,25.1,03.1,02.1,0673.6,31.0
2021-09-01T02:39:00Z,00040200,00000000,0004.73,0003.37,0002.37,0000.77,0000.45,0000.18,0001.14,0000.79,0000.87,18.8,25.1,03.1,02.1,0673.6,31.0
2021-09-01T02:40:00Z,00040200,00000000,0003.86,0002.87,0001.95,0001.25,0000.77,0000.56,0000.66,0000.71,0000.32,18.7,25.1,03.2,02.2,0673.6,31.0
2021-09-01T02:41:00Z,00040200,00000000,0003.90,0003.41,0001.85,0000.98,0000.55,0000.29,0000.26,0000.44,0000.57,18.7,25.0,03.2,02.2,0673.6,31.0
2021-09-01T02:42:00Z,00040200,00000000,0004.32,0003.03,0002.08,0001.15,0000.42,0000.21,0001.09,0000.84,0000.40,18.7,25.0,03.2,02.1,0673.6,31.0
2021-09-01T02:43:00Z,00040200,00000000,0003.56,0003.33,0002.15,0000.30,0000.66,0000.34,0000.75,0000.48,0000.84,18.7,25.0,03.2,02.2,0673.6,31.0
2021-09-01T02:44:00Z,00040200,00000000,0004.65,0003.29,0001.88,0000.86,0000.28,-000.03,0000.66,0000.92,0000.39,18.7,25.0,03.3,02.2,0673.6,30.9
2021-09-01T02:45:00Z,00040200,00000000,0004.11,0003.48,0002.19,0000.80,0000.15,0000.36,0001.26,0001.20,0001.03,18.8,25.0,03.3,02.2,0673.6,31.0
2021-09-01T02:46:00Z,00040200,00000000,0004.98,0003.48,0002.28,0000.51,0000.76,0000.37,0001.26,0000.61,0000.81,18.9,25.1,03.3,02.2,0673.6,31.0
2021-09-01T02:47:00Z,00040200,00000000,0005.92,0003.59,0002.06,0000.68,0000.44,0000.29,0000.61,0001.35,0000.52,19.0,25.2,03.3,02.3,0673.6,31.0
2021-09-01T02:48:00Z,00040200,00000000,0004.77,0003.59,0002.26,0000.71,0000.39,0000.32,0001.28,0000.66,0000.82,19.0,25.2,03.5,02.4,0673.6,31.0
2021-09-01T02:49:00Z,00040200,00000000,0004.06,0003.66,0002.08,0001.06,0000.60,0000.25,0000.64,0000.96,0000.90,19.0,25.2,03.4,02.4,0673.6,31.0
2021-09-01T02:50:00Z,00040200,00000000,0005.23,0003.57,0002.51,0000.97,0000.49,0000.44,0001.01,0001.18,0000.61,19.0,25.2,03.4,02.3,0673.6,31.0
2021-09-01T02:51:00Z,00040200,00000000,0004.81,0004.05,0002.67,0000.73,0000.50,0000.41,0001.07,0000.84,0000.67,18.9,25.2,03.5,02.4,0673.6,31.0
2021-09-01T02:52:00Z,00040200,00000000,0005.23,0003.59,0002.45,0000.99,0000.74,0000.34,0000.95,0000.49,0000.65,18.9,25.1,03.5,02.4,0673.6,31.0
2021-09-01T02:53:00Z,00040200,00000000,0004.93,0003.25,0001.84,0001.08,0000.63,0000.09,0000.33,0000.05,0000.08,18.9,25.1,03.3,02.2,0673.6,31.0
2021-09-01T02:54:00Z,00040200,00000000,0003.50,0002.84,0001.80,0000.01,0000.74,-000.02,0000.25,0000.56,0000.13,18.8,25.1,03.2,02.2,0673.6,31.0
2021-09-01T02:55:00Z,00040200,00000000,0003.91,0002.74,0002.10,0000.45,0000.83,0000.51,0000.78,0000.61,0000.76,18.8,25.1,03.2,02.2,0673.6,31.0
2021-09-01T02:56:00Z,00040200,00000000,0004.22,0002.64,0001.99,0001.27,0000.27,0000.15,0000.30,0000.73,0000.46,18.8,25.1,03.2,02.2,0673.6,31.0
2021-09-01T02:57:00Z,00040200,40000000,,,,,,,0000.35,0000.01,-000.46,18.8,25.1,03.2,02.2,0673.5,31.0
2021-09-01T02:58:00Z,00040200,60000000,,,,,,,-000.04,-000.13,0000.45,18.5,25.2,03.2,02.1,0672.6,31.0
2021-09-01T02:59:00Z,00040200,20000000,,,,,,,0000.17,-000.09,0000.14,18.5,25.3,03.1,02.1,0672.6,31.0
